Погода в Сояне

Россия / Архангельская область     65°46′34″N   43°23′37″E
темп.,
°C
ветер,
м/с
пор.,
м/с
влажн.,
%
обл.,
%
осадки,
мм/ч
давл.,
гПа
погр.,
м
15 мая, сб
сб1500:00+8с359089 2.8 1014245
03:00+7ссз249115 2.8 1014144
06:00+8с238274 0.0 1014370
09:00+10ссз227690 0.0 1014551
12:00+12ссз227172 0.0 1015694
15:00+14с326342 0.0 1015874
18:00+12ссв33695 0.0 1015501
21:00+8ссв25854 0.0 1014174
16 мая, вс
вс1600:00+6ссв249413 0.0 1014106
03:00+5св259649 0.0 1013132
06:00+8св368198 0.0 1011231
09:00+13св4669100 0.0 1009498
12:00+16в4658100 0.0 1007991
15:00+17вюв3559100 0.0 10071239
18:00+12вюв1393100 0.9 1006118
21:00+12всв2793100 1.2 1007235
17 мая, пн
пн1700:00+11в3990100 0.0 1007445
03:00+10всв3892100 0.0 1008462
06:00+9св3887100 0.1 1009408
09:00+10св2680100 0.2 1010436
12:00+16св345747 0.0 10111208
15:00+15с3560100 0.0 1013518
18:00+14с356177 0.0 1014337
21:00+11сз2372100 0.0 101676
18 мая, вт
вт1800:00+10юз1179100 0.0 101726
03:00+8юз118099 0.0 101820
06:00+12ю13710 0.0 1018230
09:00+16ююв336112 0.0 10181018
12:00+19ююв4544100 0.0 10181412
15:00+20ююв4645100 0.0 10161430
18:00+20ююв4753100 0.0 10151202
21:00+17юв41165100 0.0 1014412
19 мая, ср
ср1900:00+15ююв4146966 0.0 1012449
03:00+14ююв5157366 0.0 1011433
06:00+16ююв51470100 0.0 1009480
09:00+23ю511495 0.0 1008623
12:00+27ю7113116 0.0 10061684
15:00+30ю6132999 0.0 10052489
18:00+29ю6132910 0.0 10032618
21:00+23ю4104543 0.0 1004268